Location: Newark
(58.8333°N, 23.5833°E)
Time: 11:00:07
(UTC+00:00)

Explorer 7 - Pass Details

Date: 22 November 2019
Orbit: 485 x 680 km, 50.3° (Epoch: 12 December)

Event Time Altitude Azimuth Distance (km) Brightness Sun altitude
Rises 21:47:36 0° 216° (SW) 2,960 - -51.1°
Reaches altitude 10° 21:50:35 10° 198° (SSW) 2,019 - -51.2°
Maximum altitude 21:53:42 18° 156° (SSE) 1,526 - -51.2°
Drops below altitude 10° 21:56:43 10° 113° (ESE) 1,943 - -51.3°
Sets 21:59:31 0° 94° (E) 2,804 - -51.3°
